GW6303 Weather Reports


time (UTC)temp
F
wind
direction
speed
knots
gust
knots
rain 1hr
in
rain 24hr
in
rain mn
in
humidity
%
barometer
mb
20260510153514 72 204 0.0 0.9 0.01 0.04 0.01 67 1015.1
20260510153025 71 203 0.0 1.7 0.00 0.03 0.00 68 1015.0
20260510152517 71 198 0.0 2.6 0.00 0.03 0.00 68 1015.0
20260510152010 70 205 0.0 2.6 0.00 0.03 0.00 70 1014.9
20260510151510 70 212 0.0 0.9 0.00 0.03 0.00 72 1014.9
20260510151007 69 216 0.0 0.9 0.00 0.03 0.00 73 1014.8
20260510150506 68 209 0.0 2.6 0.00 0.03 0.00 74 1014.9
20260510150005 68 181 0.0 2.6 0.00 0.03 0.00 77 1015.0
20260510145503 67 215 0.0 0.9 0.00 0.03 0.00 79 1015.1
20260510145002 66 207 0.0 0.9 0.00 0.03 0.00 79 1015.0
20260510144501 66 181 0.0 0.9 0.00 0.03 0.00 81 1015.1
20260510144100 65 207 0.0 0.9 0.00 0.03 0.00 82 1015.0
20260510143558 64 202 0.0 1.7 0.00 0.03 0.00 84 1015.1
20260510143058 63 200 0.0 1.7 0.00 0.03 0.00 86 1015.1
20260510142555 62 183 0.0 0.0 0.00 0.03 0.00 87 1015.0
20260510142052 62 203 0.0 0.9 0.00 0.03 0.00 89 1014.9
20260510141552 61 191 0.0 0.9 0.00 0.03 0.00 89 1014.9
20260510141050 60 215 0.0 0.9 0.00 0.03 0.00 92 1015.0
20260510140548 59 210 0.0 0.9 0.00 0.03 0.00 93 1015.1
20260510140049 58 211 0.0 1.7 0.00 0.03 0.00 95 1015.0
20260510135546 58 196 0.0 1.7 0.00 0.03 0.00 96 1015.0
20260510135045 57 197 0.0 0.9 0.00 0.03 0.00 97 1014.9
20260510134551 57 197 0.0 1.7 0.00 0.03 0.00 97 1014.9
20260510134041 57 191 0.0 1.7 0.00 0.03 0.00 98 1014.9
20260510133544 56 205 0.0 0.0 0.00 0.03 0.00 98 1015.0
20260510133040 56 194 0.0 0.0 0.00 0.03 0.00 98 1015.0
20260510132539 55 197 0.0 0.9 0.00 0.03 0.00 98 1014.9
20260510132038 55 190 0.0 0.0 0.00 0.03 0.00 98 1014.9
20260510131537 55 190 0.0 0.9 0.00 0.03 0.00 98 1014.9
20260510131036 55 191 0.0 0.9 0.00 0.03 0.00 98 1014.9
20260510130535 54 191 0.0 0.9 0.00 0.03 0.00 98 1015.1
20260510130035 53 187 0.0 0.9 0.00 0.03 0.00 97 1015.2
20260510125533 53 188 0.0 0.0 0.00 0.03 0.00 98 1015.3
20260510125035 53 196 0.0 0.0 0.00 0.03 0.00 98 1015.2
20260510124537 53 196 0.0 0.0 0.00 0.03 0.00 98 1015.2
20260510124033 53 196 0.0 0.0 0.00 0.03 0.00 98 1015.1
20260510123531 53 189 0.0 0.0 0.00 0.03 0.00 98 1015.2
20260510123033 52 186 0.0 0.0 0.00 0.03 0.00 98 1014.9
20260510122529 52 185 0.0 0.0 0.00 0.03 0.00 98 1014.9
20260510122030 52 186 0.0 0.0 0.00 0.03 0.00 98 1014.6
20260510121527 52 188 0.0 0.0 0.00 0.03 0.00 98 1014.6
20260510121029 52 171 0.0 0.0 0.00 0.03 0.00 98 1014.6
20260510120526 52 191 0.0 0.0 0.00 0.03 0.00 98 1014.5
20260510120028 51 195 0.0 0.9 0.00 0.03 0.00 98 1014.4
20260510115525 51 195 0.0 0.9 0.00 0.03 0.00 98 1014.4
20260510115028 51 192 0.0 0.0 0.00 0.03 0.00 98 1014.1
20260510114527 51 192 0.0 0.0 0.00 0.03 0.00 98 1014.3
20260510114025 51 198 0.0 0.0 0.00 0.03 0.00 98 1014.4
20260510113523 51 201 0.0 0.9 0.00 0.03 0.00 98 1014.1
20260510113123 51 198 0.0 0.9 0.00 0.03 0.00 97 1014.0
20260510112524 51 205 0.0 0.0 0.00 0.03 0.00 98 1014.1
20260510112023 51 203 0.0 0.0 0.00 0.03 0.00 98 1014.1
20260510111522 51 205 0.0 0.0 0.00 0.03 0.00 98 1014.3
20260510111021 51 205 0.0 0.0 0.00 0.03 0.00 98 1014.2
20260510110524 51 205 0.0 0.0 0.00 0.03 0.00 98 1014.1
20260510110028 51 205 0.0 0.0 0.00 0.03 0.00 98 1014.1
20260510105520 51 205 0.0 0.0 0.00 0.03 0.00 98 1014.0
20260510105019 50 205 0.0 0.0 0.00 0.03 0.00 97 1014.0
20260510104518 50 205 0.0 0.0 0.00 0.03 0.00 98 1013.9
20260510104017 50 205 0.0 0.0 0.00 0.03 0.00 98 1013.9
20260510103517 50 205 0.0 0.0 0.00 0.03 0.00 97 1013.7
20260510103020 50 201 0.0 0.0 0.00 0.03 0.00 97 1013.5
20260510102519 50 201 0.0 0.0 0.00 0.03 0.00 97 1013.7
20260510102017 50 201 0.0 0.0 0.00 0.03 0.00 97 1013.5
20260510101516 50 201 0.0 0.0 0.00 0.03 0.00 97 1013.5
20260510101016 50 201 0.0 0.0 0.00 0.03 0.00 97 1013.4
20260510100516 50 199 0.0 0.0 0.00 0.03 0.00 97 1013.6
20260510100018 50 200 0.0 0.0 0.00 0.03 0.00 97 1013.5
20260510095515 50 200 0.0 0.0 0.00 0.03 0.00 97 1013.5
20260510095014 50 197 0.0 0.0 0.00 0.03 0.00 97 1013.4
20260510094517 50 197 0.0 0.0 0.00 0.03 0.00 97 1013.6
20260510094014 50 191 0.0 0.0 0.00 0.03 0.00 97 1013.3
20260510093516 50 191 0.0 0.0 0.00 0.03 0.00 97 1013.2
20260510093016 50 191 0.0 0.0 0.00 0.03 0.00 97 1013.0
20260510092513 50 191 0.0 0.0 0.00 0.03 0.00 97 1013.0
20260510092013 50 191 0.0 0.0 0.00 0.03 0.00 97 1013.2
20260510091513 50 191 0.0 0.0 0.00 0.03 0.00 97 1013.1
20260510091015 50 190 0.0 0.0 0.00 0.03 0.00 97 1013.1
20260510090513 50 189 0.0 0.0 0.00 0.03 0.00 97 1013.3
20260510090012 50 189 0.0 0.0 0.00 0.03 0.00 97 1013.4
20260510085512 50 191 0.0 0.0 0.00 0.03 0.00 97 1013.4
20260510085012 50 191 0.0 0.0 0.00 0.03 0.00 97 1013.4
20260510084513 50 191 0.0 0.9 0.00 0.03 0.00 97 1013.2
20260510084016 50 206 0.0 0.0 0.00 0.03 0.00 97 1013.5
20260510083516 50 206 0.0 0.0 0.00 0.03 0.00 97 1013.3
20260510083012 49 193 0.0 0.0 0.00 0.03 0.00 97 1013.4
20260510082514 49 193 0.0 0.9 0.00 0.03 0.00 97 1013.2
20260510082015 49 179 0.0 0.9 0.00 0.03 0.00 97 1013.3
20260510081513 49 184 0.0 1.7 0.00 0.03 0.00 97 1013.5
20260510081010 49 204 0.0 1.7 0.00 0.03 0.00 97 1013.1
20260510080512 49 181 0.0 0.0 0.00 0.03 0.00 97 1013.0
20260510080010 49 181 0.0 0.0 0.00 0.03 0.00 97 1012.6
20260510075514 49 181 0.0 0.0 0.00 0.03 0.00 97 1012.6
20260510075008 49 181 0.0 0.0 0.00 0.03 0.00 97 1012.7
20260510074509 49 181 0.0 0.0 0.00 0.03 0.00 97 1012.6
20260510074008 50 181 0.0 0.0 0.00 0.03 0.00 97 1012.6
20260510073515 50 181 0.0 0.0 0.00 0.03 0.00 97 1012.7
20260510073007 50 181 0.0 0.0 0.00 0.03 0.00 97 1012.6
20260510072507 50 181 0.0 0.0 0.00 0.03 0.00 97 1012.5
20260510072009 50 181 0.0 0.0 0.00 0.03 0.00 97 1012.4
20260510071507 50 181 0.0 0.9 0.00 0.03 0.00 97 1012.5
20260510071009 50 181 0.0 0.9 0.00 0.03 0.00 97 1012.6
20260510070506 50 200 0.0 0.9 0.00 0.03 0.00 97 1012.6
20260510070009 50 180 0.0 0.9 0.00 0.03 0.00 97 1012.6
20260510065506 50 197 0.0 0.0 0.00 0.03 0.00 97 1012.7
20260510065008 50 186 0.0 0.0 0.00 0.03 0.00 97 1012.5
20260510064506 50 195 0.0 0.0 0.00 0.03 0.00 97 1012.3
20260510064006 50 203 0.0 0.0 0.00 0.03 0.00 97 1012.4
20260510063506 50 203 0.0 0.0 0.00 0.03 0.00 97 1012.4
20260510063005 50 203 0.0 0.0 0.00 0.03 0.00 97 1012.1
20260510062504 50 203 0.0 0.0 0.00 0.03 0.00 97 1012.1
20260510062004 50 203 0.0 0.0 0.00 0.03 0.00 97 1012.1
20260510061505 51 203 0.0 0.0 0.00 0.03 0.00 97 1012.1
20260510061009 51 203 0.0 0.0 0.00 0.03 0.00 97 1012.1
20260510060503 51 203 0.0 0.0 0.00 0.03 0.00 97 1012.1
20260510060005 51 203 0.0 0.0 0.00 0.03 0.00 97 1012.3
20260510055503 50 203 0.0 0.0 0.00 0.03 0.00 97 1012.3
20260510055002 50 203 0.0 0.0 0.00 0.03 0.00 97 1012.3
20260510054600 50 203 0.0 0.0 0.00 0.03 0.00 97 1012.4
20260510054100 50 203 0.0 0.0 0.00 0.03 0.00 97 1012.4
20260510053557 50 203 0.0 0.0 0.00 0.03 0.00 97 1012.4
20260510053058 49 203 0.0 0.0 0.00 0.03 0.00 97 1012.5
20260510052559 49 203 0.0 0.0 0.00 0.03 0.00 97 1012.5
20260510052055 49 203 0.0 0.0 0.00 0.03 0.00 97 1012.5
20260510051602 49 203 0.0 0.0 0.00 0.03 0.00 96 1012.4
20260510051054 49 203 0.0 0.0 0.00 0.03 0.00 97 1012.5
20260510050554 49 203 0.0 0.0 0.00 0.03 0.00 96 1012.6
20260510050054 49 203 0.0 0.0 0.00 0.03 0.00 96 1012.7
20260510045553 49 203 0.0 0.0 0.00 0.03 0.00 96 1012.6
20260510045053 49 203 0.0 0.0 0.00 0.03 0.00 96 1012.7
20260510044556 49 203 0.0 0.0 0.00 0.03 0.00 96 1012.8
20260510044053 49 203 0.0 0.0 0.00 0.03 0.00 96 1012.8
20260510043553 49 203 0.0 0.0 0.00 0.03 0.00 96 1012.7
20260510043100 49 203 0.0 0.0 0.00 0.03 0.00 96 1012.7
20260510042551 49 203 0.0 0.0 0.00 0.03 0.00 96 1012.8
20260510042050 49 203 0.0 0.0 0.00 0.03 0.00 96 1012.8
20260510041607 49 203 0.0 0.0 0.00 0.03 0.00 96 1012.8
20260510041057 49 203 0.0 0.0 0.00 0.03 0.00 96 1012.9
20260510040550 49 203 0.0 0.0 0.00 0.03 0.00 96 1012.9
20260510040049 49 203 0.0 0.0 0.00 0.03 0.00 96 1012.8
20260510035548 49 203 0.0 0.0 0.00 0.03 0.03 96 1012.7
20260510035048 49 203 0.0 0.0 0.00 0.03 0.03 96 1012.8
20260510034550 49 203 0.0 0.0 0.00 0.03 0.03 96 1012.7
20260510034051 49 203 0.0 0.0 0.00 0.03 0.03 96 1012.7
20260510033548 49 203 0.0 0.0 0.00 0.03 0.03 96 1012.7
20260510033048 50 203 0.0 0.0 0.00 0.03 0.03 96 1012.7
20260510032550 50 203 0.0 0.0 0.00 0.03 0.03 96 1012.7
20260510032048 50 203 0.0 0.0 0.00 0.03 0.03 96 1012.6
20260510031545 50 203 0.0 0.0 0.00 0.03 0.03 96 1012.4
20260510031045 50 203 0.0 0.0 0.00 0.03 0.03 96 1012.5
20260510030548 50 203 0.0 0.0 0.00 0.03 0.03 96 1012.5
20260510030049 50 203 0.0 0.0 0.00 0.03 0.03 96 1012.5
20260510025543 50 203 0.0 0.0 0.00 0.03 0.03 96 1012.5
20260510025045 50 203 0.0 0.0 0.00 0.03 0.03 96 1012.6
20260510024553 50 203 0.0 0.0 0.00 0.03 0.03 96 1012.5
20260510024048 50 203 0.0 0.0 0.00 0.03 0.03 96 1012.5
20260510023543 50 203 0.0 0.0 0.00 0.03 0.03 96 1012.4
20260510023043 51 203 0.0 0.0 0.00 0.03 0.03 96 1012.3
20260510022546 51 203 0.0 0.0 0.00 0.03 0.03 96 1012.3
20260510022042 51 203 0.0 0.0 0.00 0.03 0.03 96 1012.4
20260510021542 50 203 0.0 0.0 0.00 0.03 0.03 96 1012.3
20260510021041 50 203 0.0 0.0 0.00 0.03 0.03 95 1012.4
20260510020541 50 203 0.0 0.0 0.00 0.03 0.03 95 1012.3
20260510020048 50 203 0.0 0.0 0.00 0.03 0.03 95 1012.2
20260510015541 50 203 0.0 0.0 0.00 0.03 0.03 95 1012.3
20260510015039 51 203 0.0 0.0 0.00 0.03 0.03 95 1012.3
20260510014541 51 203 0.0 0.0 0.00 0.03 0.03 95 1012.2
20260510014040 51 203 0.0 0.0 0.00 0.03 0.03 95 1012.3
20260510013540 51 203 0.0 0.0 0.00 0.03 0.03 95 1012.3
20260510013046 51 203 0.0 0.0 0.00 0.03 0.03 95 1012.4
20260510012543 51 203 0.0 0.0 0.00 0.03 0.03 95 1012.3
20260510012038 51 203 0.0 0.0 0.00 0.03 0.03 95 1012.3
20260510011539 51 203 0.0 0.0 0.00 0.03 0.03 95 1012.1
20260510011037 51 203 0.0 0.0 0.00 0.03 0.03 95 1012.0
20260510010536 51 203 0.0 0.0 0.00 0.03 0.03 95 1012.1
20260510010055 51 203 0.0 0.0 0.00 0.03 0.03 95 1012.0
20260510005537 51 203 0.0 0.0 0.00 0.03 0.03 94 1012.0
20260510005036 52 203 0.0 0.0 0.00 0.03 0.03 94 1011.9
20260510004536 52 203 0.0 0.0 0.00 0.03 0.03 94 1011.9
20260510004035 52 203 0.0 0.0 0.00 0.03 0.03 94 1012.0
20260510003535 52 203 0.0 0.0 0.00 0.03 0.03 94 1011.8
20260510003036 52 203 0.0 0.0 0.00 0.03 0.03 94 1011.8
20260510002536 53 203 0.0 0.0 0.00 0.03 0.03 94 1011.6
20260510002034 53 203 0.0 0.0 0.00 0.03 0.03 93 1011.6
20260510001535 53 203 0.0 0.0 0.00 0.03 0.03 93 1011.7
20260510001037 53 203 0.0 0.0 0.00 0.03 0.03 93 1011.7
20260510000538 53 202 0.0 0.0 0.00 0.03 0.03 92 1011.7
20260510000038 53 203 0.0 0.0 0.00 0.03 0.03 92 1011.7
20260509235535 54 203 0.0 0.0 0.00 0.03 0.03 92 1011.7
20260509235034 54 203 0.0 0.0 0.00 0.03 0.03 92 1011.8
20260509234550 54 201 0.0 0.0 0.00 0.03 0.03 91 1011.9
20260509234037 54 201 0.0 0.0 0.00 0.03 0.03 91 1011.8
20260509233538 54 200 0.0 0.0 0.00 0.03 0.03 91 1011.9
20260509233035 55 200 0.0 0.0 0.00 0.03 0.03 90 1011.8
20260509232538 55 200 0.0 0.0 0.00 0.03 0.03 90 1011.8
20260509232034 55 200 0.0 0.0 0.00 0.03 0.03 90 1011.8
20260509231535 55 198 0.0 0.0 0.00 0.03 0.03 90 1011.8
20260509231032 56 194 0.0 0.0 0.00 0.03 0.03 89 1011.8
20260509230537 56 194 0.0 0.0 0.00 0.03 0.03 89 1011.8
20260509230033 56 194 0.0 0.0 0.00 0.03 0.03 88 1011.8
20260509225533 57 195 0.0 0.0 0.00 0.03 0.03 88 1011.8
20260509225034 57 192 0.0 0.0 0.00 0.03 0.03 88 1011.7
20260509224532 57 192 0.0 0.0 0.00 0.03 0.03 88 1011.8
20260509224032 57 182 0.0 0.0 0.00 0.03 0.03 91 1011.9
20260509223533 56 178 0.0 1.7 0.00 0.03 0.03 89 1011.9
20260509223032 56 178 0.0 1.7 0.00 0.03 0.03 90 1011.8
20260509222531 56 197 0.0 1.7 0.00 0.03 0.03 89 1011.8
20260509222035 57 181 0.0 1.7 0.00 0.03 0.03 91 1011.5
20260509221551 56 146 0.0 1.7 0.00 0.03 0.03 92 1011.7
20260509221031 56 188 0.0 0.9 0.00 0.03 0.03 91 1011.6
20260509220529 57 200 0.0 0.9 0.00 0.03 0.03 91 1011.7
20260509220032 57 177 0.0 0.9 0.00 0.03 0.03 91 1011.7
20260509215530 57 203 0.0 1.7 0.00 0.03 0.03 91 1011.7
20260509215030 57 168 0.0 1.7 0.00 0.03 0.03 91 1011.8
20260509214530 57 187 0.0 0.0 0.00 0.03 0.03 92 1011.8
20260509214030 57 208 0.0 0.0 0.00 0.03 0.03 92 1011.7
20260509213529 57 203 0.0 0.0 0.00 0.03 0.03 91 1011.9
20260509213030 57 190 0.0 0.0 0.00 0.03 0.03 90 1011.8
20260509212532 57 198 0.0 0.9 0.00 0.03 0.03 91 1011.8
20260509212028 57 207 0.0 0.9 0.00 0.03 0.03 92 1011.8
20260509211528 57 193 0.0 0.0 0.00 0.03 0.03 93 1011.9
20260509211028 57 192 0.0 0.0 0.00 0.03 0.03 93 1011.8
20260509210529 56 200 0.0 0.0 0.00 0.03 0.03 94 1011.9
20260509210028 56 192 0.0 0.0 0.00 0.03 0.03 93 1011.9
20260509205528 56 191 0.0 0.0 0.00 0.03 0.03 93 1011.8
20260509205028 55 191 0.0 0.0 0.00 0.03 0.03 93 1011.8
20260509204528 55 191 0.0 0.0 0.00 0.03 0.03 93 1011.7
20260509204028 55 195 0.0 0.0 0.00 0.03 0.03 93 1011.8
20260509203526 55 195 0.0 0.0 0.00 0.03 0.03 93 1011.8
20260509203030 55 195 0.0 0.0 0.00 0.03 0.03 93 1011.7
20260509202527 55 197 0.0 0.9 0.00 0.03 0.03 92 1011.7
20260509202027 55 179 0.0 1.7 0.00 0.03 0.03 92 1011.7
20260509201527 55 200 0.0 0.0 0.00 0.03 0.03 92 1011.7
20260509201032 55 196 0.0 0.0 0.00 0.03 0.03 92 1011.7
20260509200528 55 197 0.0 0.9 0.00 0.03 0.03 92 1011.9
20260509200024 55 172 0.0 0.9 0.00 0.03 0.03 92 1012.0
20260509195524 55 181 0.0 0.9 0.00 0.03 0.03 91 1012.0
20260509195026 55 181 0.0 1.7 0.00 0.03 0.03 91 1012.0
20260509194523 55 175 0.0 0.0 0.00 0.03 0.03 91 1012.1
20260509194023 55 202 0.0 0.9 0.00 0.03 0.03 91 1012.1
20260509193526 55 172 0.0 0.9 0.00 0.03 0.03 91 1012.4
20260509193023 55 184 0.0 0.9 0.00 0.03 0.03 92 1012.6
20260509192522 55 179 0.0 0.9 0.00 0.03 0.03 91 1012.4
20260509192036 56 219 0.0 1.7 0.00 0.03 0.03 91 1012.5
20260509191522 56 190 0.0 1.7 0.00 0.03 0.03 91 1012.7
20260509191020 56 175 0.0 1.7 0.00 0.03 0.03 91 1012.7
20260509190523 56 187 0.0 1.7 0.00 0.03 0.03 93 1012.7
20260509190035 56 199 0.0 0.0 0.00 0.03 0.03 92 1012.6
20260509185523 56 199 0.0 0.0 0.00 0.03 0.03 92 1012.5
20260509185020 56 198 0.0 0.0 0.00 0.03 0.03 92 1012.7
20260509184528 56 181 0.0 0.0 0.00 0.03 0.03 92 1012.7
20260509184019 56 180 0.0 0.0 0.00 0.03 0.03 91 1012.8
20260509183519 56 180 0.0 0.9 0.00 0.03 0.03 91 1012.9
20260509183026 56 181 0.0 0.9 0.00 0.03 0.03 90 1012.9
20260509182519 56 193 0.0 0.0 0.00 0.03 0.03 89 1012.9
20260509182019 57 199 0.0 0.0 0.00 0.03 0.03 89 1012.9
20260509181517 57 174 0.0 1.7 0.00 0.03 0.03 88 1013.0
20260509181021 57 183 0.0 1.7 0.00 0.03 0.03 87 1013.0
20260509180517 58 184 0.0 1.7 0.01 0.03 0.03 88 1012.9
20260509180016 58 200 0.0 1.7 0.01 0.03 0.03 87 1012.9
20260509175516 58 192 0.0 0.9 0.01 0.03 0.03 87 1012.9
20260509175018 58 196 0.0 0.9 0.02 0.03 0.03 87 1012.7
20260509174522 58 196 0.0 0.9 0.02 0.03 0.03 86 1012.7
20260509174016 58 198 0.0 0.9 0.02 0.03 0.03 85 1012.7
20260509173515 58 193 0.0 0.0 0.03 0.03 0.03 85 1012.6
20260509173016 58 196 0.0 0.0 0.03 0.03 0.03 86 1012.7
20260509172515 58 182 0.0 0.9 0.03 0.03 0.03 86 1012.9
20260509172014 58 181 0.0 0.9 0.03 0.03 0.03 85 1012.9
20260509171514 58 190 0.0 0.0 0.03 0.03 0.03 85 1012.9
20260509171013 58 192 0.0 0.9 0.03 0.03 0.03 85 1012.9
20260509170513 58 200 0.0 0.9 0.02 0.02 0.02 84 1012.9
20260509170025 58 195 0.0 2.6 0.02 0.02 0.02 83 1012.9
20260509165511 59 190 0.0 2.6 0.01 0.01 0.01 82 1012.9
20260509165011 60 193 0.0 1.7 0.01 0.01 0.01 82 1013.1
20260509164512 60 192 0.0 2.6 0.01 0.01 0.01 81 1012.9
20260509164016 61 179 0.0 2.6 0.01 0.01 0.01 80 1012.9
20260509163511 61 186 0.0 1.7 0.00 0.00 0.00 78 1012.9
20260509163012 62 188 0.0 2.6 0.00 0.00 0.00 76 1012.9
20260509162512 63 198 0.0 0.0 0.00 0.00 0.00 76 1012.9
20260509162012 63 196 0.0 1.7 0.00 0.00 0.00 75 1013.1
20260509161510 63 195 0.0 1.7 0.00 0.00 0.00 71 1013.2
20260509161010 63 186 0.0 2.6 0.00 0.00 0.00 69 1013.1
20260509160508 64 186 0.0 2.6 0.00 0.00 0.00 69 1013.1
20260509160016 64 200 0.0 2.6 0.00 0.00 0.00 71 1013.2
20260509155507 64 194 0.0 2.6 0.00 0.00 0.00 69 1013.3
20260509155011 64 194 0.0 2.6 0.00 0.00 0.00 67 1013.4
20260509154508 64 182 0.0 1.7 0.00 0.00 0.00 67 1013.5
20260509154008 64 187 0.0 3.5 0.00 0.00 0.00 67 1013.3